[[{"header":{"parameterUnit":"m.s-1","parameterCategory":1,"la1":30.2991,"la2":30.254,"lo1":-89.0895,"lo2":-89.0444,"dy":0.0017,"dx":0.0017,"nx":28,"ny":28,"refTime":"2023-10-31T09:00:00:Z","depth":0,"parameterNumber":2,"parameterNumberName":"U-component_of_WINDS"},"data":[0,0,0,0,0,0,0,0,0,0,0,0,0,0,0,0,0,0,0,0,0,0,0,0,0,0,0,0,0,0,0,0,0,0,0,0,0,0,0,0,0,0,0,0,0,0,0,0,0,0,0,0,0,0,0,0,0,0,0.7966,0.7965,0,0.7911,0.791,0.791,0.7902,0.7902,0.7903,0.7903,0.7844,0.7842,0.784,0,0,0,0,0,0,0,0,0,0,0,0,0,0.8061,0.806,0.7966,0.7965,0.7964,0.7911,0.791,0.791,0.7902,0.7902,0.7903,0.7903,0.7845,0.7842,0.784,0,0,0,0,0,0,0,0,0,0,0,0,0,0.8015,0.8059,0.7966,0.7954,0.7952,0.7911,0.791,0.7909,0.7902,0.7902,0.7903,0.7904,0.7846,0.7843,0.784,0.7805,0,0,0.783,0.7829,0,0,0,0,0,0,0,0,0.8017,0.8011,0.7956,0.7955,0.7953,0.7914,0.7922,0.7874,0.7901,0.7921,0.7903,0.7904,0.7867,0.7862,0.785,0.7803,0.78,0.783,0.7828,0.7827,0.7826,0,0,0,0,0,0,0,0.802,0.8013,0.7944,0.7956,0.7953,0.7951,0.7945,0.7913,0.789,0.7919,0.7918,0.7912,0.7866,0.7853,0.7848,0.7799,0.783,0.7827,0.7825,0.7824,0.7722,0.7721,0,0,0,0,0,0,0.8026,0.8016,0.7946,0.7942,0.7988,0.7949,0.7942,0.7926,0.789,0.7886,0.7912,0.7912,0.7858,0.7852,0.7846,0.7804,0.7827,0.7824,0.7822,0.7723,0.7722,0.7721,0,0,0,0,0,0,0.8028,0.802,0.7948,0.7979,0.797,0.7946,0.7928,0.7924,0.7911,0.7885,0.788,0.7903,0.7858,0.7851,0.7816,0.7802,0.7822,0.782,0.7724,0.7723,0.7722,0.7719,0,0,0,0,0,0,0.8031,0.8021,0.8008,0.7979,0.7968,0.7919,0.7927,0.7923,0.7906,0.7906,0.7875,0.7871,0.7858,0.7821,0.7813,0.7798,0.7817,0.7725,0.7723,0.7722,0.772,0.7718,0.7716,0,0,0,0,0,0.8034,0.8008,0.8007,0.7999,0.7951,0.7918,0.7912,0.7899,0.7905,0.7892,0.7875,0.7872,0.7805,0.7817,0.7808,0.7792,0.7726,0.7724,0.7722,0.7721,0.7718,0.7716,0,0,0,0,0,0,0.8034,0.8004,0.8002,0.7966,0.7945,0.7917,0.7899,0.7896,0.7871,0.7872,0.7856,0.7849,0.7816,0.7801,0.7815,0.7758,0.7766,0.7762,0.7768,0.7765,0.7763,0.7767,0.7815,0,0,0,0,0,0.8031,0.8007,0.7982,0.7952,0.7942,0.7923,0.7908,0.79,0.7876,0.7867,0.7848,0.7824,0.7799,0.7781,0.7756,0.7719,0.7712,0.7704,0.7702,0.77,0.7696,0.7676,0.7672,0.7715,0.7715,0.7715,0,0,0.8021,0.8002,0.7988,0.7952,0.7934,0.7909,0.7915,0.7888,0.7869,0.7862,0.7829,0.7814,0.7788,0.7752,0.7735,0.7738,0.7683,0.7697,0.7696,0.7693,0.7674,0.7669,0.7666,0.7713,0.7714,0.7714,0,0,0.7992,0.7976,0.7949,0.7933,0.7907,0.7895,0.7889,0.7861,0.7852,0.7818,0.7813,0.779,0.7746,0.7727,0.7712,0.7678,0.7674,0.7671,0.7658,0.7639,0.7635,0.7632,0.762,0.7616,0.7668,0.7668,0.7667,0,0.7984,0.7947,0.7936,0.791,0.7894,0.7889,0.7862,0.7846,0.7813,0.7802,0.7807,0.7752,0.7733,0.7693,0.7686,0.7674,0.7666,0.7673,0.7637,0.7634,0.7631,0.7618,0.7614,0.7667,0.7667,0.7667,0.7667,0,0.7938,0.7913,0.7895,0.7864,0.7847,0.782,0.7805,0.7789,0.7783,0.777,0.7737,0.7715,0.7686,0.7676,0.7669,0.7635,0.7638,0.764,0.7648,0.7626,0.7615,0.761,0.7667,0.7667,0.7667,0.7667,0,0,0.7904,0.787,0.7864,0.785,0.7823,0.7803,0.7777,0.7749,0.7735,0.7713,0.769,0.7654,0.7657,0.7639,0.7631,0.7614,0.7589,0.7618,0.7617,0.7613,0.755,0.7548,0.7543,0.7587,0.7586,0.7586,0.7552,0,0.7871,0.7825,0.7815,0.7775,0.7752,0.7748,0.7725,0.7706,0.7694,0.7672,0.7659,0.7633,0.7638,0.7628,0.7611,0.7596,0.7576,0.7598,0.7565,0.7564,0.757,0.7537,0.7534,0.7503,0.7548,0.7547,0.7546,0,0.7825,0.7804,0.7762,0.7739,0.7729,0.7708,0.7683,0.7663,0.7641,0.7633,0.7615,0.761,0.7582,0.7593,0.7555,0.757,0.7557,0.7547,0.7546,0.7541,0.7552,0.753,0.7493,0.7488,0.7539,0.754,0.754,0,0.7804,0.7765,0.7735,0.7724,0.7696,0.7682,0.767,0.7649,0.7633,0.7611,0.7601,0.7576,0.7562,0.7542,0.753,0.7539,0.7493,0.7503,0.7485,0.7486,0.7474,0.7474,0.7433,0.7468,0.7468,0.7468,0.7468,0,0.7767,0.7741,0.7725,0.7706,0.7678,0.7668,0.7639,0.7627,0.7609,0.7587,0.7583,0.7563,0.7548,0.7526,0.7517,0.7487,0.748,0.7473,0.7471,0.7473,0.7473,0.7462,0.7463,0.7467,0.7467,0.7467,0.7467,0,0.7737,0.7726,0.7693,0.767,0.7664,0.7644,0.7624,0.7606,0.7596,0.7569,0.7562,0.7544,0.7518,0.7505,0.7472,0.7466,0.7432,0.7431,0.7439,0.7438,0.7421,0.7422,0.7369,0.7362,0.7403,0.7402,0.7402,0,0.7714,0.7694,0.767,0.7656,0.7644,0.7621,0.7606,0.7596,0.758,0.7555,0.754,0.7514,0.7493,0.7452,0.7436,0.7411,0.7409,0.7392,0.7405,0.7408,0.7408,0.7408,0.7406,0.7389,0.7389,0.7389,0.7388,0,0.7672,0.7668,0.7647,0.7624,0.7607,0.7588,0.7569,0.7558,0.7545,0.7528,0.7502,0.7485,0.7453,0.7427,0.7402,0.7389,0.7386,0.7385,0.738,0.7381,0.7386,0.7382,0.7432,0.7386,0.7386,0.7386,0.7386,0.7386,0.7644,0.7627,0.7608,0.7585,0.757,0.7553,0.7535,0.7524,0.7502,0.7476,0.7471,0.7444,0.7424,0.739,0.7376,0.7355,0.7358,0.735,0.7348,0.7346,0.7344,0.7391,0.735,0.735,0.735,0.735,0.735,0,0.7602,0.759,0.7569,0.7544,0.7526,0.7528,0.7508,0.7492,0.7468,0.7451,0.7431,0.7401,0.7377,0.7361,0.7336,0.7322,0.732,0.7315,0.7315,0.7312,0.7343,0.735,0.7317,0.7317,0.7317,0.7317,0.7317,0.7317,0.7578,0.7548,0.7542,0.7506,0.7495,0.7468,0.7457,0.7442,0.7428,0.7396,0.7376,0.7366,0.7349,0.7323,0.7301,0.7297,0.7288,0.7283,0.7278,0.7307,0.731,0.7313,0.732,0.7281,0.7281,0.7249,0.7249,0.7249]},{"header":{"parameterUnit":"m.s-1","parameterCategory":1,"la1":30.2991,"la2":30.254,"lo1":-89.0895,"lo2":-89.0444,"dy":0.0017,"dx":0.0017,"nx":28,"ny":28,"refTime":"2023-10-31T09:00:00:Z","depth":0,"parameterNumber":3,"parameterNumberName":"V-component_of_WINDS"},"data":[0,0,0,0,0,0,0,0,0,0,0,0,0,0,0,0,0,0,0,0,0,0,0,0,0,0,0,0,0,0,0,0,0,0,0,0,0,0,0,0,0,0,0,0,0,0,0,0,0,0,0,0,0,0,0,0,0,0,-9.5565,-9.5567,0,-9.5739,-9.5741,-9.5743,-9.5626,-9.5621,-9.5616,-9.5611,-9.5781,-9.579,-9.5799,0,0,0,0,0,0,0,0,0,0,0,0,0,-9.5125,-9.5134,-9.5565,-9.5567,-9.5569,-9.5738,-9.5741,-9.5743,-9.5627,-9.5621,-9.5614,-9.5608,-9.5777,-9.5789,-9.58,0,0,0,0,0,0,0,0,0,0,0,0,0,-9.5309,-9.5137,-9.5564,-9.5532,-9.5531,-9.5738,-9.5741,-9.5744,-9.5629,-9.5621,-9.5613,-9.5605,-9.5774,-9.5788,-9.5802,-9.6048,0,0,-9.5845,-9.5851,0,0,0,0,0,0,0,0,-9.5299,-9.5325,-9.5535,-9.5535,-9.5534,-9.5653,-9.5648,-9.5845,-9.5631,-9.5591,-9.5611,-9.5601,-9.5744,-9.576,-9.581,-9.6056,-9.6063,-9.5846,-9.5855,-9.5861,-9.5865,0,0,0,0,0,0,0,-9.5286,-9.5317,-9.5633,-9.5538,-9.5537,-9.5506,-9.5524,-9.5685,-9.571,-9.5594,-9.5586,-9.5609,-9.5742,-9.5797,-9.5813,-9.6065,-9.5846,-9.5858,-9.5867,-9.5873,-9.6522,-9.6531,0,0,0,0,0,0,-9.5277,-9.5308,-9.5628,-9.5638,-9.5395,-9.5521,-9.554,-9.5623,-9.5708,-9.5713,-9.5615,-9.5603,-9.5776,-9.5797,-9.5818,-9.6113,-9.5861,-9.5874,-9.5882,-9.6514,-9.6524,-9.6534,0,0,0,0,0,0,-9.5269,-9.5307,-9.5621,-9.5471,-9.5509,-9.5537,-9.563,-9.563,-9.5684,-9.5724,-9.5727,-9.5667,-9.5771,-9.5799,-9.5992,-9.6117,-9.588,-9.5893,-9.6503,-9.6517,-9.6529,-9.6705,0,0,0,0,0,0,-9.5256,-9.5305,-9.54,-9.5474,-9.5517,-9.5795,-9.5638,-9.5639,-9.571,-9.5695,-9.5773,-9.5778,-9.5767,-9.5972,-9.6007,-9.6133,-9.5904,-9.6492,-9.6509,-9.6525,-9.6688,-9.6722,-9.6751,0,0,0,0,0,-9.5241,-9.5441,-9.5406,-9.5445,-9.5638,-9.5802,-9.5826,-9.5811,-9.5721,-9.5816,-9.5841,-9.5776,-9.6098,-9.5993,-9.6031,-9.6163,-9.6484,-9.6505,-9.6524,-9.6673,-9.6715,-9.6751,0,0,0,0,0,0,-9.5377,-9.545,-9.5412,-9.5641,-9.5717,-9.5782,-9.5902,-9.5856,-9.5956,-9.5938,-9.5912,-9.5931,-9.6134,-9.6167,-9.6049,-9.6406,-9.6277,-9.6305,-9.6377,-9.6418,-9.6449,-9.6437,-9.5916,0,0,0,0,0,-9.5435,-9.5565,-9.5619,-9.5817,-9.5857,-9.5874,-9.5944,-9.5927,-9.6003,-9.6033,-9.6072,-9.6147,-9.6264,-9.6342,-9.6453,-9.6692,-9.6707,-9.6801,-9.6833,-9.6859,-9.6884,-9.7013,-9.7056,-9.6599,-9.6598,-9.6598,0,0,-9.5553,-9.5609,-9.5692,-9.5846,-9.5902,-9.6036,-9.5901,-9.6047,-9.6145,-9.6054,-9.6241,-9.6273,-9.6353,-9.6571,-9.6669,-9.6605,-9.7014,-9.6884,-9.6905,-9.6916,-9.7038,-9.7081,-9.712,-9.6612,-9.661,-9.6607,0,0,-9.5838,-9.5893,-9.6065,-9.6125,-9.6213,-9.6223,-9.6264,-9.6337,-9.6356,-9.6544,-9.6479,-9.6593,-9.6797,-9.6858,-9.6915,-9.7225,-9.7168,-9.7261,-9.7428,-9.7554,-9.759,-9.7622,-9.7733,-9.7773,-9.7286,-9.7286,-9.7286,0,-9.5973,-9.6175,-9.6157,-9.6311,-9.638,-9.6307,-9.6479,-9.6537,-9.6656,-9.6705,-9.6632,-9.6888,-9.6936,-9.7168,-9.7244,-9.7293,-9.7338,-9.7252,-9.7587,-9.7619,-9.7648,-9.7754,-9.7796,-9.7297,-9.7296,-9.7295,-9.7294,0,-9.6337,-9.6478,-9.6605,-9.6726,-9.6809,-9.6971,-9.6977,-9.7063,-9.7038,-9.7055,-9.7247,-9.7303,-9.7425,-9.7478,-9.7454,-9.7707,-9.7665,-9.7591,-9.746,-9.7703,-9.7802,-9.7842,-9.7312,-9.7309,-9.7305,-9.7303,0,0,-9.6712,-9.6823,-9.687,-9.6925,-9.7017,-9.7124,-9.7282,-9.7404,-9.7479,-9.7563,-9.7694,-9.7869,-9.7802,-9.7867,-9.7849,-9.796,-9.8203,-9.7872,-9.7873,-9.7932,-9.8486,-9.8542,-9.8589,-9.8166,-9.8173,-9.818,-9.8479,0,-9.7002,-9.7282,-9.7272,-9.7531,-9.7661,-9.7594,-9.7731,-9.7802,-9.7822,-9.7933,-9.7953,-9.8079,-9.7979,-9.8019,-9.8125,-9.8151,-9.8314,-9.8129,-9.8286,-9.8292,-9.8269,-9.8641,-9.87,-9.898,-9.8517,-9.8524,-9.8529,0,-9.7379,-9.748,-9.7754,-9.783,-9.7883,-9.8008,-9.8119,-9.8226,-9.8305,-9.8311,-9.8386,-9.8351,-9.8508,-9.8374,-9.8591,-9.8466,-9.8529,-9.8551,-9.8562,-9.8576,-9.8426,-9.8666,-9.9069,-9.9112,-9.8589,-9.8584,-9.858,0,-9.7626,-9.783,-9.8021,-9.807,-9.8162,-9.8251,-9.8293,-9.8364,-9.8438,-9.8535,-9.8583,-9.8695,-9.8757,-9.8844,-9.8839,-9.8741,-9.9059,-9.8923,-9.9068,-9.9068,-9.9138,-9.9134,-9.9558,-9.9178,-9.9178,-9.9177,-9.9176,0,-9.7953,-9.8123,-9.8134,-9.8251,-9.844,-9.8425,-9.8611,-9.8644,-9.8708,-9.8829,-9.8776,-9.889,-9.8876,-9.899,-9.8987,-9.9167,-9.9195,-9.9204,-9.9201,-9.9209,-9.9208,-9.9251,-9.9231,-9.9188,-9.9185,-9.9183,-9.9181,0,-9.8261,-9.8275,-9.8479,-9.8551,-9.8573,-9.8708,-9.8768,-9.8879,-9.8895,-9.9049,-9.9084,-9.9108,-9.924,-9.9244,-9.9394,-9.9392,-9.9612,-9.9587,-9.9587,-9.9583,-9.9727,-9.9714,-10.0194,-10.0256,-9.9835,-9.9839,-9.9843,0,-9.8468,-9.8598,-9.8686,-9.8765,-9.8813,-9.894,-9.9017,-9.9008,-9.9089,-9.9189,-9.9288,-9.9415,-9.9517,-9.973,-9.9759,-9.9874,-9.9851,-10.0012,-9.9868,-9.9873,-9.9855,-9.9848,-9.9861,-10.004,-10.0045,-10.0048,-10.0052,0,-9.8836,-9.8837,-9.8952,-9.907,-9.9164,-9.9255,-9.934,-9.9407,-9.9407,-9.9501,-9.9637,-9.9716,-9.9872,-9.9998,-10.011,-10.015,-10.0102,-10.0097,-10.0136,-10.0147,-10.0142,-10.0147,-9.9665,-10.0086,-10.0082,-10.008,-10.0078,-10.0077,-9.9101,-9.9214,-9.9294,-9.9423,-9.9487,-9.9568,-9.9676,-9.9707,-9.9821,-9.9949,-9.9936,-10.0087,-10.0161,-10.0307,-10.0357,-10.0473,-10.0417,-10.0475,-10.0489,-10.0504,-10.052,-10.0124,-10.0493,-10.0492,-10.0491,-10.049,-10.049,0,-9.9466,-9.9515,-9.9634,-9.9757,-9.9859,-9.9807,-9.9898,-9.9986,-10.0121,-10.0196,-10.0299,-10.0455,-10.0578,-10.0619,-10.0738,-10.0823,-10.0804,-10.0855,-10.0849,-10.0859,-10.0562,-10.0517,-10.0869,-10.0869,-10.0869,-10.0868,-10.0868,-10.0868,-9.9669,-9.9858,-9.9869,-10.0089,-10.0135,-10.0286,-10.0343,-10.0416,-10.0477,-10.0655,-10.0759,-10.0785,-10.0847,-10.097,-10.108,-10.1088,-10.1135,-10.1196,-10.1195,-10.0917,-10.0879,-10.0843,-10.08,-10.1206,-10.1206,-10.1481,-10.1484,-10.1486]}]]